Data for 02/08/2010

Time Sea-Level Adjusted Pressure Absolute Pressure Temperature Relative Humidity Dew Point   
(mb) (inHg) (mb) (inHg) (C) (F) (%) (C) (F)
00:05 1013 29.91 842 24.86 -4.9 23.3 79 -7.9 17.7
00:10 1013 29.91 842 24.86 -5 23.1 79 -8.1 17.5
00:15 1013 29.91 842 24.86 -4.3 24.3 77 -7.8 18
00:20 1013 29.91 842 24.86 -3.9 25 75 -7.7 18.2
00:25 1013 29.91 842 24.86 -3.7 25.4 73 -7.8 17.9
00:30 1013 29.91 842 24.86 -3.1 26.5 72 -7.4 18.7
00:35 1013 29.91 843 24.89 -3 26.7 72 -7.3 18.9
00:40 1013 29.91 843 24.89 -3.2 26.3 73 -7.3 18.8
00:45 1013 29.91 843 24.89 -3.5 25.6 73 -7.6 18.3
00:50 1013 29.91 843 24.89 -4.6 23.8 75 -8.4 16.9
00:55 1013 29.91 843 24.89 -5.2 22.6 78 -8.5 16.6
01:00 1013 29.91 843 24.89 -5.8 21.5 79 -8.8 16.1
01:05 1013 29.91 843 24.89 -6.1 21 81 -8.9 16
01:10 1013 29.91 843 24.89 -5.5 22.1 80 -8.4 16.9
01:15 1013 29.91 843 24.89 -5.2 22.6 79 -8.3 17.1
01:20 1013 29.91 843 24.89 -5.5 22.2 80 -8.4 16.8
01:25 1013 29.91 843 24.89 -5.6 21.9 80 -8.6 16.6
01:30 1013 29.91 843 24.89 -6 21.2 81 -8.7 16.4
01:35 1013 29.91 843 24.89 -6 21.2 81 -8.8 16.2
01:40 1013 29.91 843 24.89 -6.6 20.2 82 -9.2 15.4
01:45 1013 29.91 843 24.89 -6.6 20.1 83 -9.1 15.6
01:50 1013 29.91 843 24.89 -5.8 21.5 80 -8.7 16.3
01:55 1013 29.91 843 24.89 -5.9 21.3 81 -8.7 16.3
02:00 1013 29.91 843 24.89 -5.8 21.6 80 -8.7 16.3
02:05 1013 29.91 842 24.86 -5.9 21.3 80 -8.8 16.1
02:10 1013 29.91 842 24.86 -5.8 21.5 80 -8.7 16.3
02:15 1013 29.91 842 24.86 -5.7 21.8 80 -8.6 16.6
02:20 1013 29.91 842 24.86 -5.4 22.4 79 -8.4 16.9
02:25 1013 29.91 842 24.86 -5.3 22.4 78 -8.6 16.6
02:30 1013 29.91 842 24.86 -5.5 22.1 78 -8.7 16.4
02:35 1013 29.91 842 24.86 -5.3 22.5 78 -8.5 16.8
02:40 1013 29.91 842 24.86 -5.3 22.5 78 -8.5 16.7
02:45 1013 29.91 842 24.86 -5.2 22.6 78 -8.5 16.7
02:50 1013 29.91 842 24.86 -5.2 22.7 78 -8.5 16.7
02:55 1013 29.91 842 24.86 -4.9 23.1 76 -8.5 16.6
03:00 1013 29.91 842 24.86 -4.5 23.9 73 -8.6 16.6
03:05 1013 29.91 842 24.86 -4 24.8 71 -8.5 16.7
03:10 1013 29.91 842 24.86 -3.7 25.4 70 -8.4 16.9
03:15 1013 29.91 842 24.86 -3.6 25.6 70 -8.3 17.1
03:20 1013 29.91 842 24.86 -3.6 25.6 70 -8.2 17.2
03:25 1013 29.91 843 24.89 -3.8 25.2 71 -8.2 17.2
03:30 1013 29.91 843 24.89 -3.9 25 71 -8.4 17
03:35 1013 29.91 843 24.89 -3.8 25.1 70 -8.5 16.8
03:40 1013 29.91 843 24.89 -3.5 25.8 69 -8.4 16.8
03:45 1013 29.91 843 24.89 -3.3 26 70 -8.1 17.5
03:50 1013 29.91 843 24.89 -3.5 25.6 71 -8.1 17.3
03:55 1013 29.91 843 24.89 -3.7 25.3 71 -8.2 17.2
04:00 1013 29.91 843 24.89 -3.9 24.9 74 -8 17.7
04:05 1013 29.91 843 24.89 -4.2 24.5 73 -8.3 17
04:10 1013 29.91 843 24.89 -4.1 24.6 73 -8.2 17.3
04:15 1013 29.91 843 24.89 -4.3 24.3 74 -8.3 17.1
04:20 1013 29.91 842 24.86 -4.2 24.4 73 -8.4 16.9
04:25 1013 29.91 842 24.86 -4.2 24.4 73 -8.4 16.9
04:30 1013 29.91 842 24.86 -4.1 24.5 72 -8.4 16.8
04:35 1013 29.91 842 24.86 -4.2 24.5 73 -8.3 17.1
04:40 1013 29.91 842 24.86 -4.4 24.1 74 -8.3 17.1
04:45 1013 29.91 842 24.86 -4.5 23.9 75 -8.2 17.2
04:50 1013 29.91 842 24.86 -4.6 23.7 76 -8.2 17.3
04:55 1013 29.91 842 24.86 -4.4 24.1 75 -8.2 17.3
05:00 1013 29.91 842 24.86 -4 24.8 73 -8.1 17.4
05:05 1013 29.91 843 24.89 -3.3 26 69 -8.2 17.2
05:10 1013 29.91 842 24.86 -3.1 26.4 69 -8 17.6
05:15 1013 29.91 842 24.86 -3.2 26.3 69 -8.1 17.5
05:20 1013 29.91 842 24.86 -3.2 26.2 69 -8.1 17.4
05:25 1013 29.91 842 24.86 -3.2 26.2 69 -8.1 17.4
05:30 1013 29.91 842 24.86 -3.2 26.3 69 -8 17.6
05:35 1013 29.91 842 24.86 -3.2 26.2 71 -7.8 17.9
05:40 1013 29.91 842 24.86 -3.5 25.7 73 -7.7 18.2
05:45 1013 29.91 842 24.86 -3.6 25.4 73 -7.9 17.8
05:50 1013 29.91 842 24.86 -3.6 25.4 73 -7.7 18.1
05:55 1013 29.91 842 24.86 -3.8 25.2 74 -7.8 18
06:00 1013 29.91 842 24.86 -3.8 25.1 73 -7.9 17.7
06:05 1013 29.91 842 24.86 -3.6 25.5 72 -7.9 17.7
06:10 1013 29.91 842 24.86 -3.4 25.8 72 -7.7 18.1
06:15 1013 29.91 842 24.86 -3.3 26 71 -7.9 17.7
06:20 1013 29.91 842 24.86 -3.2 26.2 73 -7.4 18.7
06:25 1013 29.91 842 24.86 -3.3 26.1 74 -7.3 18.9
06:30 1013 29.91 842 24.86 -3.5 25.7 75 -7.3 18.8
06:35 1013 29.91 842 24.86 -3.7 25.3 77 -7.1 19.1
06:40 1013 29.91 842 24.86 -3.9 25 77 -7.3 18.8
06:45 1013 29.91 842 24.86 -3.9 24.9 77 -7.4 18.8
06:50 1013 29.91 842 24.86 -4 24.8 77 -7.4 18.7
06:55 1013 29.91 842 24.86 -4 24.9 77 -7.5 18.6
07:00 1013 29.91 842 24.86 -4 24.9 76 -7.5 18.5
07:05 1013 29.91 842 24.86 -4 24.8 77 -7.4 18.6
07:10 1013 29.91 842 24.86 -4.1 24.7 78 -7.3 18.8
07:15 1013 29.91 842 24.86 -4.1 24.6 79 -7.3 18.9
07:20 1013 29.91 842 24.86 -4.2 24.5 81 -7 19.5
07:25 1013 29.91 842 24.86 -4.2 24.4 82 -6.9 19.6
07:30 1013 29.91 842 24.86 -4.2 24.5 81 -6.9 19.6
07:35 1013 29.91 842 24.86 -4 24.9 81 -6.8 19.8
07:40 1013 29.91 842 24.86 -3.7 25.4 80 -6.6 20.1
07:45 1013 29.91 842 24.86 -3.7 25.4 80 -6.6 20.1
07:50 1013 29.91 842 24.86 -3.8 25.2 80 -6.6 20
07:55 1013 29.91 842 24.86 -3.8 25.2 81 -6.6 20.1
08:00 1013 29.91 842 24.86 -3.7 25.3 81 -6.5 20.3
08:05 1013 29.91 842 24.86 -3.7 25.3 81 -6.5 20.3
08:10 1013 29.91 842 24.86 -3.8 25.1 81 -6.5 20.2
08:15 1013 29.91 842 24.86 -3.8 25.1 82 -6.4 20.4
08:20 1013 29.91 842 24.86 -3.7 25.3 81 -6.6 20.2
08:25 1013 29.91 843 24.89 -3.5 25.6 79 -6.6 20.1
08:30 1013 29.91 842 24.86 -3.5 25.8 79 -6.6 20.1
08:35 1013 29.91 843 24.89 -3.3 26.1 78 -6.5 20.3
08:40 1013 29.91 843 24.89 -3.2 26.3 77 -6.6 20.1
08:45 1013 29.91 843 24.89 -3.2 26.2 78 -6.5 20.3
08:50 1014 29.94 843 24.89 -3.1 26.4 76 -6.7 19.9
08:55 1013 29.91 843 24.89 -3 26.6 76 -6.7 20
09:00 1013 29.91 843 24.89 -2.9 26.8 75 -6.7 20
09:05 1014 29.94 843 24.89 -3.1 26.5 76 -6.8 19.8
09:10 1014 29.94 843 24.89 -2.8 26.9 74 -6.8 19.7
09:15 1014 29.94 843 24.89 -2.6 27.4 74 -6.6 20.1
09:20 1014 29.94 843 24.89 -2.5 27.5 75 -6.4 20.5
09:25 1014 29.94 843 24.89 -2.8 27 77 -6.3 20.7
09:30 1014 29.94 843 24.89 -2.9 26.8 77 -6.4 20.5
09:35 1014 29.94 843 24.89 -2.7 27.1 76 -6.4 20.5
09:40 1014 29.94 843 24.89 -2.4 27.7 76 -6.1 21
09:45 1014 29.94 843 24.89 -2.1 28.3 73 -6.3 20.7
09:50 1014 29.94 843 24.89 -2.1 28.2 73 -6.3 20.6
09:55 1014 29.94 843 24.89 -2 28.4 72 -6.4 20.5
10:00 1014 29.94 843 24.89 -1.7 28.9 70 -6.6 20.2
10:05 1014 29.94 843 24.89 -1.6 29.1 69 -6.5 20.2
10:10 1014 29.94 843 24.89 -1.5 29.3 70 -6.3 20.6
10:15 1014 29.94 843 24.89 -1.1 29.9 70 -6 21.2
10:20 1014 29.94 843 24.89 -1.1 30 70 -5.9 21.3
10:25 1014 29.94 843 24.89 -1 30.2 68 -6.2 20.8
10:30 1014 29.94 843 24.89 -0.9 30.3 70 -5.8 21.6
10:35 1014 29.94 843 24.89 -0.9 30.4 70 -5.8 21.6
10:40 1014 29.94 843 24.89 -0.9 30.3 69 -5.9 21.4
10:45 1014 29.94 843 24.89 -0.7 30.7 70 -5.6 22
10:50 1014 29.94 843 24.89 -1.1 30.1 70 -5.8 21.5
10:55 1014 29.94 843 24.89 -1.2 29.8 71 -5.9 21.4
11:00 1014 29.94 843 24.89 -1.3 29.7 68 -6.5 20.3
11:05 1014 29.94 843 24.89 -1.3 29.7 69 -6.3 20.7
11:10 1014 29.94 843 24.89 -1.3 29.6 70 -6.1 21
11:15 1014 29.94 843 24.89 -0.7 30.7 66 -6.2 20.8
11:20 1014 29.94 843 24.89 -1 30.2 66 -6.6 20.2
11:25 1014 29.94 843 24.89 -1.3 29.7 68 -6.4 20.5
11:30 1014 29.94 843 24.89 -0.5 31.1 66 -6.2 20.9
11:35 1014 29.94 843 24.89 0.1 32.3 63 -6.1 21.1
11:40 1014 29.94 843 24.89 0.3 32.6 65 -5.5 22.1
11:45 1014 29.94 843 24.89 0.5 32.9 63 -5.8 21.5
11:50 1014 29.94 843 24.89 0.6 33.1 61 -6.1 21
11:55 1014 29.94 843 24.89 0.4 32.7 63 -5.9 21.4
12:00 1014 29.94 843 24.89 0.4 32.6 62 -6.2 20.9
12:05 1013 29.91 843 24.89 0.5 32.9 60 -6.3 20.7
12:10 1013 29.91 843 24.89 0.8 33.4 59 -6.3 20.6
12:15 1013 29.91 843 24.89 1.2 34.1 60 -5.9 21.4
12:20 1013 29.91 843 24.89 1.1 33.9 63 -5.2 22.6
12:25 1013 29.91 842 24.86 0.5 33 67 -4.9 23.2
12:30 1013 29.91 842 24.86 0.2 32.3 66 -5.4 22.3
12:35 1013 29.91 842 24.86 -0.2 31.6 67 -5.6 22
12:40 1013 29.91 842 24.86 0.1 32.3 67 -5.3 22.4
12:45 1013 29.91 842 24.86 0.6 33 64 -5.4 22.3
12:50 1013 29.91 842 24.86 0.7 33.2 67 -4.9 23.3
12:55 1013 29.91 842 24.86 0.9 33.6 62 -5.6 22
13:00 1013 29.91 842 24.86 1.1 33.9 63 -5.1 22.8
13:05 1013 29.91 842 24.86 1.3 34.3 62 -5.3 22.5
13:10 1013 29.91 842 24.86 1.2 34.2 64 -4.9 23.3
13:15 1013 29.91 842 24.86 1 33.8 64 -5.1 22.9
13:20 1013 29.91 842 24.86 0.8 33.4 65 -5 23
13:25 1013 29.91 842 24.86 0.3 32.6 68 -5 23
13:30 1013 29.91 842 24.86 0.3 32.6 66 -5.4 22.3
13:35 1013 29.91 842 24.86 0.7 33.2 62 -5.8 21.5
13:40 1013 29.91 842 24.86 0.6 33 65 -5.4 22.3
13:45 1013 29.91 842 24.86 0.6 33 64 -5.5 22
13:50 1013 29.91 842 24.86 0.4 32.8 64 -5.7 21.7
13:55 1013 29.91 842 24.86 0.5 32.8 65 -5.4 22.2
14:00 1013 29.91 842 24.86 0.4 32.7 66 -5.3 22.5
14:05 1013 29.91 842 24.86 0.6 33.1 65 -5.2 22.7
14:10 1013 29.91 842 24.86 0.8 33.4 65 -5 22.9
14:15 1013 29.91 842 24.86 0.9 33.6 62 -5.5 22
14:20 1013 29.91 842 24.86 1.4 34.4 63 -5 23
14:25 1013 29.91 842 24.86 0.4 32.7 64 -5.6 22
14:30 1013 29.91 842 24.86 0.2 32.4 67 -5.2 22.6
14:35 1013 29.91 842 24.86 0.1 32.2 68 -5.1 22.9
14:40 1013 29.91 842 24.86 0.1 32.2 67 -5.2 22.6
14:45 1013 29.91 842 24.86 0.4 32.8 65 -5.5 22.1
14:50 1013 29.91 842 24.86 0.9 33.5 64 -5.2 22.6
14:55 1013 29.91 842 24.86 0.9 33.6 62 -5.6 22
15:00 1013 29.91 842 24.86 0.8 33.4 61 -5.8 21.5
15:05 1013 29.91 842 24.86 0.9 33.7 59 -6.1 21
15:10 1013 29.91 842 24.86 1.1 34 60 -5.7 21.7
15:15 1013 29.91 842 24.86 1.2 34.1 61 -5.4 22.2
15:20 1013 29.91 842 24.86 1 33.9 61 -5.5 22
15:25 1013 29.91 842 24.86 1.2 34.1 60 -5.8 21.6
15:30 1013 29.91 842 24.86 1 33.7 63 -5.4 22.3
15:35 1013 29.91 842 24.86 1.1 33.9 64 -5 22.9
15:40 1013 29.91 842 24.86 1.3 34.3 62 -5.3 22.5
15:45 1013 29.91 842 24.86 1.1 34 64 -5 23
15:50 1013 29.91 842 24.86 1.1 34.1 61 -5.5 22
15:55 1013 29.91 842 24.86 1.1 34 61 -5.6 22
16:00 1013 29.91 842 24.86 1 33.8 64 -5 22.9
16:05 1013 29.91 842 24.86 1 33.7 65 -4.9 23.1
16:10 1013 29.91 842 24.86 0.6 33.1 68 -4.5 23.8
16:15 1013 29.91 842 24.86 0.5 32.9 68 -4.6 23.6
16:20 1013 29.91 842 24.86 0.2 32.4 70 -4.5 23.9
16:25 1013 29.91 842 24.86 -0 32 73 -4.4 24.2
16:30 1013 29.91 842 24.86 0.2 32.4 70 -4.6 23.7
16:35 1013 29.91 842 24.86 0.3 32.6 69 -4.8 23.4
16:40 1013 29.91 842 24.86 -0.2 31.7 71 -4.7 23.5
16:45 1013 29.91 842 24.86 -0.1 31.9 71 -4.7 23.6
16:50 1013 29.91 842 24.86 0.1 32.1 71 -4.6 23.7
16:55 1013 29.91 842 24.86 0 32 70 -4.8 23.4
17:00 1013 29.91 842 24.86 -0.2 31.7 72 -4.6 23.8
17:05 1013 29.91 842 24.86 -0.4 31.2 72 -4.9 23.3
17:10 1013 29.91 842 24.86 -0.6 30.9 72 -5 23
17:15 1013 29.91 842 24.86 -0.6 31 73 -4.7 23.5
17:20 1013 29.91 842 24.86 -0.6 30.8 74 -4.7 23.6
17:25 1013 29.91 842 24.86 -0.9 30.4 77 -4.4 24.1
17:30 1013 29.91 842 24.86 -1.2 29.9 80 -4.2 24.4
17:35 1013 29.91 842 24.86 -1.3 29.6 82 -4 24.8
17:40 1013 29.91 843 24.89 -1.4 29.4 83 -3.9 25
17:45 1013 29.91 843 24.89 -1.5 29.3 85 -3.7 25.3
17:50 1013 29.91 843 24.89 -1.5 29.2 85 -3.7 25.4
17:55 1013 29.91 843 24.89 -1.5 29.3 86 -3.6 25.5
18:00 1013 29.91 843 24.89 -1.5 29.3 87 -3.4 25.8
18:05 1013 29.91 843 24.89 -1.5 29.2 86 -3.5 25.6
18:10 1013 29.91 843 24.89 -1.8 28.8 88 -3.4 25.8
18:15 1013 29.91 843 24.89 -1.8 28.8 89 -3.4 25.9
18:20 1013 29.91 843 24.89 -1.9 28.6 90 -3.3 26
18:25 1014 29.94 843 24.89 -2 28.4 90 -3.4 25.9
18:30 1014 29.94 843 24.89 -2.1 28.3 91 -3.3 26
18:35 1014 29.94 843 24.89 -2.1 28.2 92 -3.3 26.1
18:40 1013 29.91 843 24.89 -2.1 28.2 92 -3.2 26.2
18:45 1013 29.91 843 24.89 -2.2 28 92 -3.4 25.9
18:50 1013 29.91 843 24.89 -2.6 27.4 93 -3.5 25.7
18:55 1013 29.91 843 24.89 -2.6 27.3 94 -3.5 25.7
19:00 1013 29.91 843 24.89 -2.7 27.1 94 -3.5 25.7
19:05 1013 29.91 843 24.89 -2.7 27.2 95 -3.3 26
19:10 1013 29.91 843 24.89 -2.6 27.3 95 -3.3 26.1
19:15 1014 29.94 843 24.89 -2.6 27.4 95 -3.3 26.1
19:20 1014 29.94 843 24.89 -2.6 27.4 95 -3.3 26.1
19:25 1014 29.94 843 24.89 -2.6 27.3 95 -3.3 26.1
19:30 1014 29.94 843 24.89 -2.6 27.3 96 -3.2 26.2
19:35 1014 29.94 843 24.89 -2.6 27.4 96 -3.2 26.3
19:40 1014 29.94 843 24.89 -2.6 27.3 96 -3.1 26.3
19:45 1014 29.94 843 24.89 -2.5 27.5 96 -3.1 26.4
19:50 1013 29.91 843 24.89 -2.5 27.4 96 -3.1 26.5
19:55 1013 29.91 843 24.89 -2.6 27.4 96 -3.1 26.5
20:00 1013 29.91 843 24.89 -2.5 27.5 97 -3 26.6
20:05 1013 29.91 843 24.89 -2.4 27.6 96 -2.9 26.8
20:10 1013 29.91 843 24.89 -2.4 27.7 96 -2.9 26.8
20:15 1013 29.91 843 24.89 -2.4 27.8 96 -2.9 26.8
20:20 1013 29.91 843 24.89 -2.3 28 96 -2.8 27
20:25 1014 29.94 843 24.89 -2.2 28 96 -2.8 27
20:30 1014 29.94 843 24.89 -2.1 28.2 96 -2.6 27.3
20:35 1014 29.94 843 24.89 -2 28.5 96 -2.5 27.5
20:40 1014 29.94 843 24.89 -1.9 28.6 96 -2.4 27.6
20:45 1014 29.94 843 24.89 -1.8 28.7 95 -2.5 27.5
20:50 1014 29.94 843 24.89 -2 28.5 95 -2.7 27.2
20:55 1014 29.94 843 24.89 -2.2 28.1 95 -2.9 26.8
21:00 1014 29.94 843 24.89 -2.4 27.6 95 -3.1 26.4
21:05 1014 29.94 843 24.89 -2.4 27.6 95 -3.1 26.3
21:10 1014 29.94 843 24.89 -2.5 27.5 95 -3.2 26.3
21:15 1014 29.94 843 24.89 -2.4 27.7 95 -3.1 26.4
21:20 1014 29.94 843 24.89 -2.4 27.8 95 -3.1 26.5
21:25 1014 29.94 843 24.89 -2.3 27.8 95 -3.1 26.5
21:30 1014 29.94 843 24.89 -2.3 27.9 95 -3 26.5
21:35 1014 29.94 843 24.89 -2.2 28 95 -3 26.6
21:40 1014 29.94 843 24.89 -2.2 28 95 -3 26.7
21:45 1014 29.94 843 24.89 -2.2 28.1 95 -2.9 26.8
21:50 1014 29.94 843 24.89 -2.2 28.1 95 -2.9 26.8
21:55 1014 29.94 843 24.89 -2.2 28.1 95 -2.8 26.9
22:00 1014 29.94 843 24.89 -2.1 28.3 95 -2.7 27.1
22:05 1014 29.94 843 24.89 -2.1 28.2 95 -2.8 26.9
22:10 1014 29.94 843 24.89 -2.1 28.3 94 -2.8 26.9
22:15 1014 29.94 843 24.89 -2 28.3 92 -3.1 26.4
22:20 1014 29.94 843 24.89 -2.2 28 93 -3.2 26.2
22:25 1014 29.94 843 24.89 -2.3 27.9 93 -3.2 26.2
22:30 1014 29.94 843 24.89 -2.4 27.7 94 -3.3 26.1
22:35 1014 29.94 843 24.89 -2.5 27.6 94 -3.3 26.1
22:40 1014 29.94 843 24.89 -2.4 27.7 94 -3.2 26.3
22:45 1014 29.94 843 24.89 -2.3 27.8 95 -3.1 26.4
22:50 1014 29.94 843 24.89 -2.2 28 94 -3.1 26.5
22:55 1014 29.94 843 24.89 -2.2 28 94 -3.1 26.5
23:00 1014 29.94 843 24.89 -2.3 27.9 94 -3.1 26.4
23:05 1014 29.94 843 24.89 -2.3 27.8 94 -3.1 26.4
23:10 1014 29.94 843 24.89 -2.3 27.9 95 -3 26.6
23:15 1014 29.94 843 24.89 -2.2 28 94 -3 26.6
23:20 1014 29.94 843 24.89 -2.2 28.1 94 -3 26.6
23:25 1014 29.94 843 24.89 -2.2 28 94 -3 26.5
23:30 1014 29.94 843 24.89 -2.3 27.9 95 -3 26.5
23:35 1014 29.94 843 24.89 -2.3 27.9 95 -3.1 26.5
23:40 1014 29.94 843 24.89 -2.4 27.6 95 -3.1 26.4
23:45 1014 29.94 843 24.89 -2.5 27.6 96 -3.1 26.5
23:50 1014 29.94 843 24.89 -2.4 27.6 96 -3 26.6
23:55 1014 29.94 843 24.89 -2.5 27.5 96 -3.1 26.4
24:00 1014 29.94 843 24.89 -2.6 27.4 96 -3.1 26.3
00:05 1014 29.94 843 24.89 -2.7 27.2 96 -3.2 26.2
00:10 1014 29.94 843 24.89 -2.8 27 96 -3.4 26
00:15 1014 29.94 843 24.89 -2.8 26.9 96 -3.3 26
00:20 1014 29.94 843 24.89 -2.8 27 97 -3.3 26.1
00:25 1014 29.94 843 24.89 -2.8 27 97 -3.2 26.2
00:30 1014 29.94 843 24.89 -2.7 27.1 97 -3.2 26.2
00:35 1014 29.94 843 24.89 -2.7 27.2 97 -3.2 26.3
00:40 1014 29.94 843 24.89 -2.7 27.2 96 -3.2 26.3
00:45 1014 29.94 843 24.89 -2.6 27.2 96 -3.2 26.3
00:50 1014 29.94 843 24.89 -2.9 26.8 96 -3.4 25.9
00:55 1014 29.94 843 24.89 -3 26.5 96 -3.5 25.6
01:00 1014 29.94 843 24.89 -3.1 26.4 97 -3.5 25.6
01:05 1014 29.94 843 24.89 -3.1 26.4 97 -3.5 25.7
01:10 1014 29.94 843 24.89 -3 26.5 97 -3.4 25.8
01:15 1014 29.94 843 24.89 -3 26.7 97 -3.4 25.9
01:20 1014 29.94 843 24.89 -2.9 26.8 97 -3.3 26
01:25 1014 29.94 843 24.89 -2.8 26.9 97 -3.3 26.1
01:30 1014 29.94 843 24.89 -2.8 27 96 -3.3 26
01:35 1014 29.94 843 24.89 -2.8 26.9 96 -3.4 25.9
01:40 1014 29.94 843 24.89 -2.9 26.8 96 -3.5 25.8
01:45 1014 29.94 843 24.89 -3 26.7 95 -3.7 25.4
01:50 1014 29.94 843 24.89 -3.5 25.8 95 -4.2 24.5
01:55 1014 29.94 843 24.89 -3.7 25.3 96 -4.3 24.3
02:00 1014 29.94 843 24.89 -3.9 25 97 -4.3 24.2
02:05 1014 29.94 843 24.89 -4 24.8 98 -4.3 24.3
02:10 1014 29.94 843 24.89 -3.9 25 98 -4.2 24.4
02:15 1014 29.94 843 24.89 -3.9 25 98 -4.2 24.5
02:20 1014 29.94 843 24.89 -3.8 25.1 98 -4.1 24.7
02:25 1014 29.94 843 24.89 -3.7 25.4 98 -3.9 24.9
02:30 1014 29.94 843 24.89 -3.5 25.7 99 -3.7 25.4
02:35 1014 29.94 843 24.89 -3.3 26.1 98 -3.5 25.6
02:40 1014 29.94 843 24.89 -3.2 26.3 98 -3.5 25.7
02:45 1014 29.94 843 24.89 -3 26.7 97 -3.3 26
02:50 1014 29.94 843 24.89 -3 26.6 97 -3.4 25.8
02:55 1014 29.94 843 24.89 -3.1 26.5 97 -3.4 25.8
03:00 1014 29.94 843 24.89 -2.9 26.7 97 -3.3 26
03:05 1014 29.94 843 24.89 -2.9 26.9 97 -3.2 26.2
03:10 1014 29.94 843 24.89 -2.8 27 97 -3.2 26.2
03:15 1014 29.94 843 24.89 -2.6 27.2 97 -3 26.5
03:20 1014 29.94 843 24.89 -2.6 27.4 97 -3.1 26.5
03:25 1014 29.94 843 24.89 -2.7 27.1 96 -3.3 26.1
03:30 1014 29.94 843 24.89 -2.9 26.7 96 -3.4 25.8
03:35 1014 29.94 843 24.89 -3 26.6 97 -3.5 25.8
03:40 1014 29.94 843 24.89 -3 26.6 97 -3.5 25.8
03:45 1014 29.94 843 24.89 -3.1 26.5 97 -3.5 25.8
03:50 1014 29.94 843 24.89 -3.1 26.5 97 -3.4 25.8
03:55 1014 29.94 843 24.89 -3 26.6 97 -3.3 26
04:00 1014 29.94 843 24.89 -2.9 26.8 97 -3.2 26.2
04:05 1014 29.94 843 24.89 -2.8 26.9 97 -3.2 26.3
04:10 1014 29.94 843 24.89 -2.8 27 97 -3.2 26.3
04:15 1014 29.94 843 24.89 -2.8 27 97 -3.2 26.3
04:20 1014 29.94 843 24.89 -2.8 27 97 -3.2 26.2
04:25 1014 29.94 843 24.89 -2.9 26.9 97 -3.3 26.1
04:30 1014 29.94 843 24.89 -2.8 27 97 -3.2 26.2
04:35 1014 29.94 843 24.89 -2.8 27 97 -3.2 26.3
04:40 1014 29.94 843 24.89 -2.8 27 97 -3.2 26.2
04:45 1014 29.94 843 24.89 -2.8 27 97 -3.2 26.2
04:50 1014 29.94 843 24.89 -2.8 27 97 -3.3 26.1
04:55 1014 29.94 843 24.89 -2.8 27 97 -3.2 26.2
05:00 1014 29.94 843 24.89 -2.7 27.1 97 -3.1 26.4
05:05 1014 29.94 843 24.89 -2.7 27.1 97 -3.1 26.4
05:10 1014 29.94 843 24.89 -2.7 27.2 97 -3 26.5
05:15 1014 29.94 843 24.89 -2.6 27.4 97 -3 26.7
05:20 1014 29.94 843 24.89 -2.6 27.4 97 -3 26.6
05:25 1014 29.94 844 24.92 -2.6 27.4 97 -3 26.7
05:30 1014 29.94 844 24.92 -2.4 27.7 97 -2.8 27
05:35 1014 29.94 844 24.92 -2.3 27.9 97 -2.7 27.1
05:40 1014 29.94 844 24.92 -2.2 28 97 -2.7 27.2
05:45 1014 29.94 844 24.92 -2.2 28 97 -2.7 27.1
05:50 1014 29.94 844 24.92 -2.3 27.9 96 -2.8 26.9
05:55 1014 29.94 844 24.92 -2.4 27.7 97 -2.9 26.8
06:00 1014 29.94 844 24.92 -2.3 27.8 97 -2.8 27
06:05 1014 29.94 844 24.92 -2.3 27.8 96 -2.8 26.9
06:10 1014 29.94 844 24.92 -2.4 27.7 97 -2.9 26.8
06:15 1014 29.94 844 24.92 -2.5 27.6 97 -2.9 26.7
06:20 1014 29.94 844 24.92 -2.5 27.6 97 -3 26.7
06:25 1014 29.94 844 24.92 -2.5 27.5 97 -2.9 26.7
06:30 1015 29.97 844 24.92 -2.5 27.5 97 -2.9 26.7
06:35 1015 29.97 844 24.92 -2.5 27.5 97 -2.9 26.7
06:40 1015 29.97 844 24.92 -2.4 27.6 97 -2.8 26.9
06:45 1015 29.97 844 24.92 -2.1 28.1 97 -2.5 27.5
06:50 1015 29.97 844 24.92 -1.9 28.5 97 -2.4 27.8
06:55 1015 29.97 844 24.92 -1.8 28.8 97 -2.2 28
07:00 1015 29.97 844 24.92 -1.8 28.8 96 -2.2 28
07:05 1015 29.97 844 24.92 -1.9 28.7 96 -2.4 27.7
07:10 1015 29.97 844 24.92 -1.9 28.6 96 -2.5 27.6
07:15 1015 29.97 844 24.92 -1.9 28.5 96 -2.5 27.6
07:20 1015 29.97 844 24.92 -1.9 28.6 96 -2.4 27.7
07:25 1015 29.97 844 24.92 -1.8 28.7 96 -2.4 27.8
07:30 1015 29.97 844 24.92 -1.8 28.8 96 -2.3 27.9
07:35 1015 29.97 844 24.92 -1.8 28.7 96 -2.3 27.8
07:40 1015 29.97 844 24.92 -1.8 28.7 96 -2.4 27.7
07:45 1015 29.97 844 24.92 -2 28.4 96 -2.6 27.4
07:50 1015 29.97 844 24.92 -2.1 28.2 96 -2.6 27.2
07:55 1015 29.97 844 24.92 -2.1 28.2 96 -2.6 27.3
08:00 1015 29.97 844 24.92 -2.1 28.1 96 -2.7 27.2
08:05 1015 29.97 844 24.92 -2.2 28 97 -2.7 27.2
08:10 1015 29.97 844 24.92 -2.2 28.1 97 -2.6 27.3
08:15 1015 29.97 844 24.92 -2.1 28.3 97 -2.5 27.5
08:20 1015 29.97 844 24.92 -1.9 28.5 97 -2.3 27.8
08:25 1015 29.97 844 24.92 -1.8 28.8 97 -2.2 28
08:30 1015 29.97 844 24.92 -1.6 29.1 97 -2 28.4
08:35 1015 29.97 844 24.92 -1.4 29.4 97 -1.8 28.7
08:40 1015 29.97 844 24.92 -1.3 29.7 97 -1.7 28.9
08:45 1015 29.97 844 24.92 -1.1 30.1 96 -1.6 29.2
08:50 1015 29.97 844 24.92 -0.9 30.4 96 -1.5 29.4
08:55 1015 29.97 844 24.92 -0.8 30.6 95 -1.5 29.3
09:00 1015 29.97 845 24.95 -0.6 30.9 95 -1.4 29.5
09:05 1015 29.97 845 24.95 -0.6 31 93 -1.5 29.3
09:10 1015 29.97 845 24.95 -0.5 31 93 -1.5 29.2
09:15 1015 29.97 845 24.95 -0.5 31.1 92 -1.7 29
09:20 1015 29.97 845 24.95 -0.6 31 92 -1.7 28.9
09:25 1015 29.97 845 24.95 -0.6 30.9 92 -1.7 28.9
09:30 1016 30 845 24.95 -0.7 30.7 93 -1.8 28.7
09:35 1016 30 845 24.95 -0.8 30.5 93 -1.8 28.7
09:40 1016 30 845 24.95 -0.7 30.8 93 -1.7 28.9
09:45 1016 30 845 24.95 -0.3 31.4 91 -1.7 29
09:50 1016 30 845 24.95 -0.1 31.8 90 -1.5 29.2
09:55 1016 30 845 24.95 0.1 32.1 88 -1.7 28.9
10:00 1016 30 845 24.95 -0.1 31.8 89 -1.7 29
10:05 1016 30 845 24.95 -0.1 31.7 90 -1.5 29.3
10:10 1016 30 845 24.95 0.1 32.2 89 -1.5 29.3
10:15 1016 30 845 24.95 0.4 32.7 88 -1.4 29.5
10:20 1016 30 845 24.95 0.5 32.9 88 -1.2 29.8
10:25 1016 30 845 24.95 0.5 32.9 89 -1.2 29.9
10:30 1016 30 845 24.95 0.5 33 89 -1.1 30.1
10:35 1016 30 845 24.95 0.5 32.9 90 -0.9 30.4
10:40 1016 30 845 24.95 0.6 33 91 -0.7 30.7
10:45 1016 30 845 24.95 0.7 33.3 90 -0.8 30.6
10:50 1016 30 845 24.95 0.9 33.6 89 -0.6 30.9
10:55 1016 30 845 24.95 1.2 34.1 87 -0.7 30.8
11:00 1016 30 845 24.95 1.2 34.2 87 -0.7 30.8
11:05 1016 30 845 24.95 1.3 34.4 86 -0.7 30.8
11:10 1016 30 845 24.95 1.3 34.3 87 -0.6 30.9
11:15 1016 30 845 24.95 1.4 34.5 86 -0.7 30.8
11:20 1016 30 845 24.95 1.5 34.6 87 -0.5 31.1
11:25 1016 30 845 24.95 1.5 34.7 87 -0.4 31.2
11:30 1016 30 845 24.95 1.5 34.8 86 -0.6 31
11:35 1016 30 845 24.95 1.9 35.3 84 -0.6 30.9
11:40 1016 30 845 24.95 2 35.5 83 -0.7 30.8
11:45 1016 30 845 24.95 2 35.5 82 -0.8 30.5
11:50 1016 30 845 24.95 2.2 36 81 -0.8 30.6
11:55 1016 30 845 24.95 2.2 36 82 -0.6 31
12:00 1015 29.97 845 24.95 2.4 36.3 79 -0.9 30.4
12:05 1015 29.97 845 24.95 3 37.4 76 -0.8 30.6
12:10 1015 29.97 845 24.95 3.5 38.2 74 -0.7 30.7
12:15 1015 29.97 845 24.95 3.9 39.1 71 -0.8 30.5
12:20 1015 29.97 845 24.95 4.9 40.9 68 -0.5 31.1
12:25 1015 29.97 845 24.95 5 41 68 -0.5 31.2
12:30 1015 29.97 845 24.95 3.8 38.9 73 -0.5 31
12:35 1015 29.97 845 24.95 2.7 36.9 79 -0.6 30.9
12:40 1015 29.97 845 24.95 1.7 35.1 85 -0.6 30.9
12:45 1015 29.97 845 24.95 1.4 34.5 83 -1.1 30
12:50 1015 29.97 844 24.92 1.8 35.2 81 -1.2 29.8
12:55 1015 29.97 844 24.92 2.5 36.5 76 -1.3 29.6
13:00 1015 29.97 844 24.92 2 35.6 82 -0.8 30.5
13:05 1015 29.97 844 24.92 1.8 35.2 79 -1.5 29.2
13:10 1015 29.97 844 24.92 2.1 35.8 81 -0.9 30.4
13:15 1015 29.97 844 24.92 2.2 35.9 77 -1.5 29.3
13:20 1015 29.97 844 24.92 2.4 36.4 80 -0.7 30.7
13:25 1015 29.97 844 24.92 2.4 36.3 75 -1.6 29.1
13:30 1015 29.97 844 24.92 2.1 35.7 80 -1 30.3
13:35 1015 29.97 844 24.92 2.3 36.1 77 -1.3 29.7
13:40 1015 29.97 844 24.92 2.7 36.9 77 -0.9 30.3
13:45 1015 29.97 844 24.92 2.8 37 75 -1.2 29.8
13:50 1015 29.97 844 24.92 2.7 36.9 75 -1.2 29.8
13:55 1015 29.97 844 24.92 3.1 37.6 74 -1 30.2
14:00 1015 29.97 844 24.92 2.8 37 75 -1.3 29.7
14:05 1015 29.97 844 24.92 3.1 37.6 75 -0.9 30.3
14:10 1015 29.97 844 24.92 2.9 37.2 75 -1.1 30
14:15 1015 29.97 844 24.92 3.2 37.7 72 -1.5 29.3
14:20 1015 29.97 844 24.92 3.6 38.5 70 -1.4 29.5
14:25 1015 29.97 844 24.92 3.7 38.7 70 -1.2 29.9
14:30 1015 29.97 844 24.92 4 39.3 69 -1.2 29.9
14:35 1015 29.97 844 24.92 4.7 40.4 65 -1.3 29.7
14:40 1015 29.97 844 24.92 4.8 40.7 66 -1 30.2
14:45 1015 29.97 844 24.92 4 39.3 71 -0.7 30.8
14:50 1015 29.97 844 24.92 3.6 38.5 70 -1.3 29.7
14:55 1015 29.97 844 24.92 4.1 39.5 69 -0.9 30.3
15:00 1015 29.97 844 24.92 3.7 38.7 71 -1 30.3
15:05 1015 29.97 844 24.92 3.8 38.8 69 -1.5 29.4
15:10 1015 29.97 844 24.92 3.7 38.7 72 -0.9 30.5
15:15 1015 29.97 844 24.92 3.4 38.1 70 -1.6 29.1
15:20 1015 29.97 844 24.92 4.1 39.4 66 -1.6 29.2
15:25 1015 29.97 844 24.92 4.7 40.5 65 -1.3 29.6
15:30 1015 29.97 844 24.92 4.8 40.6 65 -1.2 29.9
15:35 1015 29.97 844 24.92 4.5 40.1 65 -1.5 29.2
15:40 1015 29.97 844 24.92 4.8 40.7 64 -1.5 29.4
15:45 1015 29.97 844 24.92 4.3 39.8 69 -0.9 30.4
15:50 1015 29.97 844 24.92 3.3 37.9 72 -1.4 29.5
15:55 1015 29.97 844 24.92 3.2 37.8 71 -1.5 29.3
16:00 1015 29.97 844 24.92 2.8 37 74 -1.4 29.6
16:05 1015 29.97 844 24.92 2.5 36.5 74 -1.7 29
16:10 1015 29.97 844 24.92 3.6 38.4 69 -1.5 29.3
16:15 1015 29.97 844 24.92 4.1 39.4 68 -1.3 29.6
16:20 1015 29.97 844 24.92 3.2 37.8 71 -1.5 29.4
16:25 1015 29.97 844 24.92 3.2 37.7 71 -1.5 29.3
16:30 1015 29.97 844 24.92 2.9 37.2 72 -1.7 29
16:35 1015 29.97 844 24.92 2.8 37.1 72 -1.8 28.8
16:40 1015 29.97 844 24.92 3.4 38.1 68 -2 28.5
16:45 1015 29.97 844 24.92 3.9 39 67 -1.7 28.9
16:50 1015 29.97 844 24.92 4.2 39.6 65 -1.7 29
16:55 1015 29.97 844 24.92 4.1 39.3 66 -1.7 29
17:00 1015 29.97 844 24.92 3.6 38.5 68 -1.7 28.9
17:05 1015 29.97 844 24.92 3.4 38.2 70 -1.5 29.4
17:10 1015 29.97 844 24.92 2.8 37.1 73 -1.5 29.3
17:15 1015 29.97 844 24.92 2.5 36.4 75 -1.5 29.3
17:20 1015 29.97 844 24.92 2.1 35.8 76 -1.6 29
17:25 1015 29.97 844 24.92 1.8 35.2 78 -1.7 28.9
17:30 1015 29.97 844 24.92 1.5 34.8 79 -1.7 28.9
17:35 1015 29.97 844 24.92 1.3 34.4 81 -1.7 29
17:40 1015 29.97 844 24.92 1.1 34 83 -1.5 29.3
17:45 1015 29.97 844 24.92 0.8 33.4 86 -1.3 29.7
17:50 1015 29.97 844 24.92 0.3 32.5 88 -1.5 29.3
17:55 1015 29.97 844 24.92 0.1 32.2 88 -1.7 29
18:00 1015 29.97 844 24.92 -0.1 31.9 88 -1.8 28.8
18:05 1015 29.97 844 24.92 -0.2 31.7 87 -2 28.3
18:10 1015 29.97 844 24.92 -0.2 31.7 88 -1.9 28.5
18:15 1015 29.97 844 24.92 -0.2 31.7 87 -2.1 28.3
18:20 1015 29.97 844 24.92 -0.1 31.8 86 -2.2 28
18:25 1015 29.97 844 24.92 -0.2 31.6 86 -2.4 27.7
18:30 1015 29.97 844 24.92 -0.3 31.5 82 -3 26.5
18:35 1015 29.97 845 24.95 -0.3 31.5 82 -3 26.6
18:40 1015 29.97 845 24.95 -0.5 31.2 84 -2.9 26.8
18:45 1015 29.97 845 24.95 -0.8 30.6 87 -2.7 27.2
18:50 1015 29.97 845 24.95 -1.4 29.5 90 -2.8 27
18:55 1015 29.97 845 24.95 -1.9 28.5 90 -3.4 25.9
19:00 1015 29.97 844 24.92 -2 28.4 90 -3.4 25.9
19:05 1015 29.97 844 24.92 -1.5 29.2 87 -3.4 25.8
19:10 1015 29.97 845 24.95 -1.4 29.4 84 -3.7 25.3
19:15 1015 29.97 845 24.95 -1.6 29.1 87 -3.5 25.6
19:20 1015 29.97 845 24.95 -1.7 29 86 -3.7 25.4
19:25 1015 29.97 845 24.95 -1.8 28.7 86 -3.9 24.9
19:30 1015 29.97 845 24.95 -1.9 28.6 85 -4 24.8
19:35 1015 29.97 844 24.92 -1.9 28.6 85 -4.1 24.6
19:40 1015 29.97 845 24.95 -2.1 28.2 85 -4.3 24.3
19:45 1015 29.97 845 24.95 -2.1 28.2 85 -4.3 24.2
19:50 1015 29.97 845 24.95 -2.1 28.3 84 -4.5 23.9
19:55 1015 29.97 845 24.95 -1.9 28.6 83 -4.4 24
20:00 1015 29.97 845 24.95 -2 28.5 81 -4.7 23.5
20:05 1015 29.97 845 24.95 -1.9 28.6 81 -4.7 23.5
20:10 1015 29.97 845 24.95 -1.9 28.5 81 -4.8 23.3
20:15 1015 29.97 845 24.95 -2 28.5 80 -4.9 23.1
20:20 1015 29.97 845 24.95 -2.1 28.2 81 -4.9 23.1
20:25 1015 29.97 845 24.95 -2.2 28 82 -4.9 23.2
20:30 1015 29.97 845 24.95 -2.1 28.3 83 -4.6 23.7
20:35 1015 29.97 845 24.95 -1.9 28.6 83 -4.4 24
20:40 1015 29.97 845 24.95 -1.7 29 81 -4.5 23.9
20:45 1015 29.97 845 24.95 -1.5 29.3 81 -4.4 24
20:50 1015 29.97 845 24.95 -1.5 29.2 80 -4.6 23.8
20:55 1015 29.97 845 24.95 -1.7 28.9 79 -4.9 23.2
21:00 1015 29.97 845 24.95 -2 28.5 81 -4.8 23.4
21:05 1015 29.97 845 24.95 -1.9 28.6 80 -4.9 23.2
21:10 1016 30 845 24.95 -1.8 28.8 79 -5 23.1
21:15 1016 30 845 24.95 -1.8 28.8 79 -5 23
21:20 1016 30 845 24.95 -1.8 28.8 79 -4.9 23.1
21:25 1016 30 845 24.95 -1.6 29.1 77 -5.1 22.8
21:30 1016 30 845 24.95 -1.6 29.1 79 -4.9 23.2
21:35 1016 30 845 24.95 -1.8 28.8 80 -4.9 23.2
21:40 1016 30 845 24.95 -1.9 28.5 80 -4.9 23.2
21:45 1016 30 845 24.95 -2 28.5 81 -4.7 23.5
21:50 1016 30 845 24.95 -1.9 28.5 82 -4.6 23.8
21:55 1016 30 845 24.95 -1.9 28.6 82 -4.6 23.8
22:00 1016 30 845 24.95 -1.8 28.7 82 -4.6 23.8
22:05 1016 30 845 24.95 -1.8 28.8 82 -4.4 24
22:10 1016 30 845 24.95 -1.7 29 80 -4.6 23.7
22:15 1016 30 845 24.95 -1.5 29.2 81 -4.3 24.2
22:20 1016 30 845 24.95 -1.4 29.4 81 -4.3 24.3
22:25 1016 30 845 24.95 -1.6 29.1 81 -4.4 24
22:30 1016 30 845 24.95 -1.8 28.8 81 -4.6 23.8
22:35 1016 30 845 24.95 -1.8 28.7 81 -4.6 23.7
22:40 1016 30 845 24.95 -1.8 28.7 81 -4.7 23.5
22:45 1016 30 845 24.95 -1.9 28.6 81 -4.8 23.4
22:50 1016 30 845 24.95 -1.9 28.5 82 -4.7 23.6
22:55 1016 30 845 24.95 -1.9 28.6 82 -4.5 23.9
23:00 1016 30 845 24.95 -1.8 28.7 83 -4.3 24.3
23:05 1016 30 845 24.95 -1.7 28.9 83 -4.2 24.5
23:10 1016 30 845 24.95 -1.7 29 84 -4.1 24.7
23:15 1016 30 845 24.95 -1.6 29.1 84 -3.9 24.9
23:20 1016 30 845 24.95 -1.6 29.1 85 -3.9 25.1
23:25 1016 30 845 24.95 -1.6 29.2 85 -3.8 25.2
23:30 1016 30 845 24.95 -1.6 29.2 85 -3.7 25.3
23:35 1016 30 845 24.95 -1.6 29.1 86 -3.7 25.4
23:40 1016 30 845 24.95 -1.7 29 87 -3.6 25.5
23:45 1016 30 845 24.95 -1.7 28.9 86 -3.7 25.4
23:50 1016 30 845 24.95 -1.7 28.9 87 -3.7 25.3
23:55 1016 30 845 24.95 -1.8 28.7 86 -3.8 25.1
24:00 1016 30 845 24.95 -1.9 28.7 86 -3.9 24.9
00:05 1016 30 845 24.95 -1.9 28.5 86 -3.9 24.9
00:10 1016 30 845 24.95 -1.9 28.6 87 -3.8 25.1
00:15 1016 30 845 24.95 -1.9 28.6 86 -3.8 25.1
00:20 1016 30 845 24.95 -1.8 28.7 86 -3.8 25.1
00:25 1016 30 845 24.95 -1.9 28.6 86 -3.9 25
00:30 1016 30 845 24.95 -1.9 28.6 85 -4 24.8
00:35 1016 30 845 24.95 -2 28.5 86 -4 24.9
00:40 1016 30 845 24.95 -1.8 28.8 85 -3.9 24.9
00:45 1016 30 845 24.95 -1.8 28.7 86 -3.9 24.9
00:50 1016 30 845 24.95 -1.9 28.6 86 -4 24.8
00:55 1016 30 845 24.95 -1.8 28.8 85 -4 24.9
01:00 1016 30 845 24.95 -1.7 29 86 -3.8 25.2
01:05 1016 30 845 24.95 -1.7 28.9 86 -3.8 25.1
01:10 1016 30 845 24.95 -1.7 28.9 85 -3.9 25
01:15 1016 30 845 24.95 -1.8 28.8 87 -3.7 25.3
01:20 1016 30 845 24.95 -1.7 29 86 -3.7 25.3
01:25 1016 30 845 24.95 -1.6 29.1 86 -3.7 25.4
01:30 1016 30 845 24.95 -1.6 29.1 86 -3.6 25.4
01:35 1016 30 845 24.95 -1.7 29 86 -3.7 25.4
01:40 1016 30 845 24.95 -1.7 28.9 86 -3.7 25.3
01:45 1016 30 845 24.95 -1.8 28.8 85 -3.9 24.9
01:50 1016 30 845 24.95 -2 28.4 83 -4.4 24
01:55 1016 30 845 24.95 -2.2 28.1 83 -4.7 23.5
02:00 1016 30 845 24.95 -2.2 28.1 86 -4.2 24.5
02:05 1016 30 845 24.95 -2.2 28.1 87 -4 24.7
02:10 1016 30 845 24.95 -2.2 28.1 87 -4.1 24.7
02:15 1016 30 845 24.95 -2.2 28.1 88 -4 24.8
02:20 1016 30 845 24.95 -2.3 27.9 87 -4.1 24.7
02:25 1016 30 845 24.95 -2.4 27.7 88 -4.1 24.6
02:30 1016 30 845 24.95 -2.4 27.7 88 -4.1 24.7
02:35 1016 30 845 24.95 -2.4 27.6 88 -4.1 24.6
02:40 1016 30 845 24.95 -2.5 27.5 89 -4.1 24.6
02:45 1016 30 845 24.95 -2.6 27.4 88 -4.3 24.3
02:50 1016 30 845 24.95 -2.6 27.4 89 -4.2 24.4
02:55 1016 30 845 24.95 -2.5 27.4 88 -4.2 24.4
03:00 1016 30 845 24.95 -2.7 27.2 89 -4.2 24.4
03:05 1016 30 845 24.95 -2.7 27.2 88 -4.3 24.2
03:10 1016 30 845 24.95 -2.7 27.2 89 -4.2 24.5
03:15 1016 30 845 24.95 -2.7 27.1 89 -4.3 24.3
03:20 1016 30 845 24.95 -2.6 27.3 89 -4.1 24.5
03:25 1016 30 845 24.95 -2.6 27.3 90 -4.1 24.6
03:30 1016 30 845 24.95 -2.8 26.9 90 -4.2 24.4
03:35 1016 30 845 24.95 -2.8 26.9 90 -4.2 24.4
03:40 1016 30 845 24.95 -2.8 27 89 -4.4 24
03:45 1016 30 845 24.95 -2.7 27.2 85 -4.8 23.4
03:50 1016 30 845 24.95 -2.6 27.3 83 -5.1 22.8
03:55 1016 30 845 24.95 -2.7 27.1 82 -5.4 22.3
04:00 1016 30 845 24.95 -2.8 27 82 -5.4 22.3
04:05 1016 30 845 24.95 -2.8 26.9 83 -5.3 22.5
04:10 1016 30 845 24.95 -2.8 26.9 84 -5.1 22.7
04:15 1016 30 845 24.95 -2.9 26.8 86 -5 23.1
04:20 1016 30 845 24.95 -2.9 26.8 86 -4.8 23.3
04:25 1016 30 845 24.95 -2.8 26.9 87 -4.8 23.4
04:30 1016 30 845 24.95 -2.9 26.8 88 -4.6 23.7
04:35 1016 30 845 24.95 -2.9 26.8 88 -4.7 23.6
04:40 1016 30 845 24.95 -2.8 26.9 87 -4.7 23.6
04:45 1016 30 845 24.95 -2.8 27 87 -4.7 23.6
04:50 1016 30 845 24.95 -2.8 27 87 -4.7 23.5
04:55 1016 30 845 24.95 -2.7 27.1 86 -4.7 23.5
05:00 1016 30 845 24.95 -2.7 27.1 87 -4.6 23.6
05:05 1016 30 845 24.95 -2.8 26.9 87 -4.7 23.5
05:10 1016 30 845 24.95 -2.9 26.8 87 -4.8 23.3
05:15 1016 30 845 24.95 -2.8 26.9 86 -4.9 23.1
05:20 1016 30 845 24.95 -2.9 26.7 87 -4.8 23.3
05:25 1016 30 845 24.95 -3.1 26.5 87 -4.9 23.2
05:30 1016 30 845 24.95 -3.1 26.4 87 -4.9 23.1
05:35 1016 30 845 24.95 -3.1 26.4 87 -5 23
05:40 1016 30 845 24.95 -3.1 26.5 88 -4.8 23.3
05:45 1016 30 845 24.95 -3 26.6 87 -4.9 23.1
05:50 1015 29.97 845 24.95 -2.9 26.7 87 -4.9 23.3
05:55 1015 29.97 845 24.95 -2.9 26.8 87 -4.8 23.3
06:00 1015 29.97 845 24.95 -2.9 26.7 87 -4.8 23.4
06:05 1015 29.97 845 24.95 -2.9 26.7 87 -4.7 23.5
06:10 1015 29.97 845 24.95 -2.9 26.8 88 -4.6 23.7
06:15 1015 29.97 845 24.95 -2.8 26.9 87 -4.7 23.6
06:20 1015 29.97 845 24.95 -2.8 26.9 87 -4.7 23.5
06:25 1015 29.97 845 24.95 -2.8 27 86 -4.8 23.4
06:30 1015 29.97 845 24.95 -2.8 27 87 -4.7 23.6
06:35 1015 29.97 845 24.95 -2.7 27.1 86 -4.7 23.6
06:40 1015 29.97 845 24.95 -2.7 27.2 86 -4.7 23.6
06:45 1015 29.97 845 24.95 -2.7 27.2 86 -4.8 23.4
06:50 1015 29.97 845 24.95 -2.7 27.1 87 -4.6 23.6
06:55 1015 29.97 845 24.95 -2.7 27.1 87 -4.6 23.8
07:00 1016 30 845 24.95 -2.8 27 87 -4.6 23.7
07:05 1016 30 845 24.95 -2.7 27.2 87 -4.6 23.8
07:10 1016 30 845 24.95 -2.8 27 86 -4.8 23.3
07:15 1016 30 845 24.95 -2.9 26.8 84 -5.3 22.5
07:20 1016 30 845 24.95 -2.9 26.7 84 -5.3 22.5
07:25 1016 30 845 24.95 -3 26.6 84 -5.3 22.4
07:30 1016 30 845 24.95 -3 26.6 84 -5.4 22.2
07:35 1016 30 845 24.95 -3 26.6 84 -5.4 22.3
07:40 1016 30 845 24.95 -3 26.6 84 -5.4 22.3
07:45 1016 30 845 24.95 -3 26.6 83 -5.4 22.3
07:50 1016 30 845 24.95 -2.9 26.8 84 -5.1 22.7
07:55 1016 30 845 24.95 -2.9 26.7 83 -5.4 22.3
08:00 1016 30 845 24.95 -2.9 26.9 84 -5.2 22.7
08:05 1016 30 845 24.95 -2.8 27 85 -4.9 23.1
08:10 1016 30 845 24.95 -2.9 26.8 86 -4.8 23.3
08:15 1016 30 845 24.95 -2.9 26.8 87 -4.8 23.3
08:20 1016 30 845 24.95 -2.9 26.7 87 -4.9 23.2
08:25 1016 30 845 24.95 -3 26.6 88 -4.8 23.4
08:30 1016 30 845 24.95 -3 26.6 88 -4.8 23.4
08:35 1016 30 845 24.95 -3 26.5 89 -4.7 23.6
08:40 1016 30 845 24.95 -2.9 26.7 88 -4.7 23.6
08:45 1016 30 845 24.95 -2.8 26.9 87 -4.7 23.5
08:50 1016 30 845 24.95 -2.8 26.9 87 -4.8 23.4
08:55 1016 30 845 24.95 -2.7 27.2 86 -4.7 23.5
09:00 1016 30 845 24.95 -2.6 27.3 85 -4.8 23.4
09:05 1016 30 845 24.95 -2.5 27.5 85 -4.7 23.5
09:10 1016 30 845 24.95 -2.3 27.9 84 -4.7 23.6
09:15 1016 30 845 24.95 -2.1 28.2 84 -4.5 23.9
09:20 1016 30 845 24.95 -2 28.3 81 -4.8 23.3
09:25 1016 30 845 24.95 -2.3 27.9 79 -5.5 22.1
09:30 1016 30 845 24.95 -2.1 28.2 77 -5.7 21.8
09:35 1016 30 845 24.95 -2 28.4 77 -5.5 22.1
09:40 1016 30 845 24.95 -2.4 27.7 78 -5.7 21.8
09:45 1016 30 845 24.95 -2.5 27.5 80 -5.5 22.1
09:50 1016 30 845 24.95 -2.5 27.5 81 -5.3 22.5
09:55 1016 30 845 24.95 -2.5 27.5 81 -5.3 22.4
10:00 1016 30 845 24.95 -2.3 27.9 81 -5.2 22.7
10:05 1016 30 845 24.95 -1.9 28.5 79 -5.1 22.8
10:10 1016 30 845 24.95 -1.9 28.6 79 -5 23
10:15 1016 30 845 24.95 -2 28.4 80 -5 23
10:20 1016 30 845 24.95 -1.7 28.9 81 -4.6 23.7
10:25 1016 30 845 24.95 -1.3 29.6 81 -4.2 24.4
10:30 1016 30 845 24.95 -0.8 30.5 79 -3.9 24.9
10:35 1016 30 845 24.95 -0.7 30.8 79 -3.8 25.1
10:40 1016 30 845 24.95 -0.5 31.2 79 -3.7 25.4
10:45 1016 30 845 24.95 -0.3 31.5 79 -3.4 25.9
10:50 1016 30 845 24.95 -0.1 31.8 77 -3.6 25.4
10:55 1016 30 845 24.95 -0.1 31.8 77 -3.7 25.4
11:00 1016 30 845 24.95 -0.1 31.9 76 -3.8 25.2
11:05 1016 30 845 24.95 -0.2 31.7 77 -3.7 25.4
11:10 1016 30 845 24.95 -0.2 31.7 76 -3.9 25
11:15 1016 30 845 24.95 0.3 32.5 73 -4 24.8
11:20 1016 30 845 24.95 0.5 33 71 -4.2 24.4
11:25 1016 30 845 24.95 0.5 32.9 71 -4.2 24.5
11:30 1016 30 845 24.95 0.6 33.1 71 -4.1 24.6
11:35 1016 30 845 24.95 0.6 33.1 71 -4 24.8
11:40 1016 30 845 24.95 0.5 33 71 -4.2 24.5
11:45 1016 30 845 24.95 0.6 33 71 -4.1 24.7
11:50 1016 30 845 24.95 1 33.8 70 -3.9 25
11:55 1016 30 845 24.95 1.8 35.2 66 -3.8 25.2
12:00 1016 30 845 24.95 2 35.7 66 -3.7 25.4
12:05 1016 30 845 24.95 1.9 35.4 64 -4.2 24.4
12:10 1016 30 845 24.95 2.5 36.5 64 -3.7 25.4
12:15 1016 30 845 24.95 2.3 36.1 65 -3.6 25.5
12:20 1016 30 845 24.95 2.6 36.6 62 -3.9 25
12:25 1016 30 845 24.95 2.7 36.8 64 -3.3 26
12:30 1016 30 845 24.95 2.6 36.7 65 -3.3 26
12:35 1016 30 845 24.95 2.7 36.8 64 -3.4 25.9
12:40 1016 30 845 24.95 3.1 37.6 63 -3.3 26.1
12:45 1016 30 845 24.95 2.6 36.6 66 -3.2 26.3
12:50 1016 30 845 24.95 2.1 35.7 67 -3.4 25.8
12:55 1015 29.97 845 24.95 2.5 36.5 64 -3.5 25.6
13:00 1015 29.97 845 24.95 2.4 36.3 70 -2.5 27.4
13:05 1015 29.97 845 24.95 2.2 35.9 69 -2.9 26.8
13:10 1015 29.97 845 24.95 2.1 35.8 68 -3.1 26.4
13:15 1015 29.97 845 24.95 1.6 34.9 72 -2.9 26.7
13:20 1015 29.97 845 24.95 1.3 34.3 71 -3.4 25.8
13:25 1015 29.97 845 24.95 1.3 34.4 75 -2.7 27.2
13:30 1015 29.97 845 24.95 0.3 32.6 77 -3.2 26.3
13:35 1015 29.97 844 24.92 -0.2 31.7 81 -3.1 26.5
13:40 1015 29.97 844 24.92 -0.5 31 80 -3.6 25.5
13:45 1015 29.97 844 24.92 -0.1 31.8 78 -3.5 25.7
13:50 1015 29.97 844 24.92 -0.5 31.1 83 -3.1 26.4
13:55 1015 29.97 844 24.92 -0.5 31 80 -3.6 25.6
14:00 1015 29.97 844 24.92 -0.6 31 81 -3.4 25.9
14:05 1015 29.97 844 24.92 -0.5 31.1 80 -3.6 25.5
14:10 1015 29.97 844 24.92 -0.7 30.7 82 -3.3 26
14:15 1015 29.97 844 24.92 -1.1 30 85 -3.3 26
14:20 1015 29.97 844 24.92 -1 30.2 85 -3.2 26.2
14:25 1015 29.97 844 24.92 -1.2 29.9 85 -3.4 25.9
14:30 1015 29.97 844 24.92 -1.6 29.2 87 -3.5 25.7
14:35 1015 29.97 844 24.92 -1.4 29.5 86 -3.5 25.7
14:40 1015 29.97 844 24.92 -1.2 29.8 86 -3.2 26.2
14:45 1015 29.97 844 24.92 -1.3 29.6 84 -3.6 25.5
14:50 1015 29.97 844 24.92 -1.1 30 84 -3.4 25.9
14:55 1015 29.97 844 24.92 -0.8 30.6 81 -3.6 25.6
15:00 1015 29.97 844 24.92 -1 30.2 84 -3.3 26
15:05 1015 29.97 844 24.92 -0.9 30.4 82 -3.6 25.5
15:10 1015 29.97 844 24.92 -0.9 30.5 83 -3.4 25.8
15:15 1015 29.97 844 24.92 -0.9 30.4 82 -3.6 25.6
15:20 1015 29.97 844 24.92 -1.4 29.5 85 -3.6 25.5
15:25 1015 29.97 844 24.92 -1.8 28.8 86 -3.8 25.1
15:30 1015 29.97 844 24.92 -1.7 29 84 -4.1 24.7
15:35 1015 29.97 844 24.92 -1.8 28.7 85 -4 24.8
15:40 1015 29.97 845 24.95 -1.7 28.9 84 -4 24.8
15:45 1015 29.97 845 24.95 -1.8 28.8 85 -3.9 25
15:50 1015 29.97 845 24.95 -1.8 28.8 86 -3.8 25.1
15:55 1015 29.97 845 24.95 -1.8 28.7 86 -4 24.9
16:00 1015 29.97 845 24.95 -1.7 29 84 -4 24.8
16:05 1016 30 845 24.95 -1.2 29.9 81 -4 24.7
16:10 1016 30 845 24.95 -0.9 30.4 79 -4.1 24.6
16:15 1016 30 845 24.95 -1.2 29.9 81 -3.9 24.9
16:20 1016 30 845 24.95 -1.4 29.5 81 -4.2 24.4
16:25 1016 30 845 24.95 -1.3 29.6 81 -4.2 24.5
16:30 1016 30 845 24.95 -1.8 28.7 85 -4 24.7
16:35 1016 30 845 24.95 -2 28.4 85 -4.1 24.6
16:40 1016 30 845 24.95 -2.1 28.2 86 -4.2 24.4
16:45 1016 30 845 24.95 -2.2 28.1 86 -4.3 24.3
16:50 1016 30 845 24.95 -2.3 27.8 87 -4.2 24.4
16:55 1016 30 845 24.95 -2.2 28.1 85 -4.3 24.2
17:00 1016 30 845 24.95 -2.2 28.1 85 -4.3 24.3
17:05 1016 30 845 24.95 -2.2 28 86 -4.3 24.3
17:10 1016 30 845 24.95 -2.1 28.2 86 -4.2 24.4
17:15 1016 30 845 24.95 -2.2 28 85 -4.4 24.1
17:20 1016 30 845 24.95 -2 28.4 83 -4.4 24.1
17:25 1016 30 845 24.95 -1.8 28.8 84 -4.2 24.5
17:30 1016 30 845 24.95 -1.8 28.7 84 -4.2 24.4
17:35 1016 30 845 24.95 -1.8 28.7 84 -4.2 24.4
17:40 1016 30 845 24.95 -1.8 28.7 83 -4.3 24.3
17:45 1016 30 845 24.95 -2.3 27.9 86 -4.3 24.3
17:50 1016 30 845 24.95 -2.5 27.6 85 -4.6 23.8
17:55 1016 30 845 24.95 -2.5 27.5 86 -4.4 24
18:00 1016 30 845 24.95 -2.2 28 85 -4.4 24.1
18:05 1016 30 845 24.95 -2.1 28.2 85 -4.4 24.2
18:10 1016 30 845 24.95 -2 28.4 84 -4.4 24.1
18:15 1016 30 845 24.95 -2 28.5 84 -4.4 24.1
18:20 1016 30 845 24.95 -1.9 28.6 85 -4.2 24.5
18:25 1016 30 845 24.95 -1.9 28.6 84 -4.2 24.4
18:30 1016 30 845 24.95 -2 28.3 85 -4.3 24.3
18:35 1016 30 845 24.95 -2.1 28.3 84 -4.4 24.1
18:40 1016 30 845 24.95 -2 28.4 83 -4.4 24.1
18:45 1016 30 845 24.95 -2.4 27.7 85 -4.5 23.9
18:50 1016 30 845 24.95 -2.4 27.7 85 -4.6 23.7
18:55 1016 30 845 24.95 -2.7 27.2 86 -4.7 23.6
19:00 1016 30 845 24.95 -2.6 27.2 87 -4.6 23.7
19:05 1016 30 845 24.95 -2.5 27.5 86 -4.6 23.7
19:10 1016 30 845 24.95 -2.8 27.1 86 -4.7 23.5
19:15 1016 30 845 24.95 -2.8 26.9 86 -4.8 23.3
19:20 1016 30 845 24.95 -3 26.6 87 -4.8 23.3
19:25 1016 30 845 24.95 -3.1 26.5 87 -4.9 23.2
19:30 1016 30 845 24.95 -3.1 26.4 88 -4.8 23.4
19:35 1016 30 845 24.95 -3 26.6 87 -4.8 23.3
19:40 1016 30 845 24.95 -3 26.6 86 -5 23
19:45 1016 30 846 24.98 -3.2 26.3 88 -5 23.1
19:50 1016 30 846 24.98 -3.1 26.4 88 -4.9 23.2
19:55 1016 30 846 24.98 -3.1 26.5 87 -5 23
20:00 1016 30 846 24.98 -3.2 26.3 87 -5 22.9
20:05 1016 30 846 24.98 -3.2 26.2 87 -5.1 22.9
20:10 1016 30 846 24.98 -3.3 26.1 87 -5.1 22.9
20:15 1016 30 846 24.98 -3.3 26 88 -5.1 22.8
20:20 1016 30 846 24.98 -3.5 25.8 89 -5.1 22.8
20:25 1016 30 846 24.98 -3.5 25.8 88 -5.1 22.7
20:30 1016 30 846 24.98 -3.5 25.7 88 -5.3 22.5
20:35 1016 30 846 24.98 -3.6 25.5 88 -5.3 22.5
20:40 1016 30 846 24.98 -3.6 25.5 88 -5.3 22.5
20:45 1016 30 846 24.98 -3.5 25.6 88 -5.3 22.5
20:50 1016 30 846 24.98 -3.5 25.7 87 -5.4 22.2
20:55 1016 30 846 24.98 -3.6 25.5 87 -5.4 22.2
21:00 1016 30 846 24.98 -3.6 25.5 87 -5.4 22.2
21:05 1016 30 846 24.98 -3.7 25.4 88 -5.4 22.2
21:10 1016 30 846 24.98 -3.7 25.4 88 -5.3 22.4
21:15 1016 30 846 24.98 -3.5 25.7 88 -5.2 22.6
21:20 1016 30 846 24.98 -3.4 26 87 -5.2 22.6
21:25 1016 30 846 24.98 -3.4 25.8 87 -5.3 22.4
21:30 1016 30 846 24.98 -3.5 25.6 87 -5.5 22.2
21:35 1016 30 846 24.98 -3.7 25.4 86 -5.6 21.9
21:40 1016 30 846 24.98 -3.9 25 87 -5.8 21.6
21:45 1016 30 846 24.98 -4 24.9 87 -5.9 21.4
21:50 1016 30 846 24.98 -4.1 24.6 87 -6 21.2
21:55 1016 30 846 24.98 -4.5 23.9 85 -6.7 19.9
22:00 1016 30 846 24.98 -5.1 22.9 84 -7.3 18.8
22:05 1016 30 846 24.98 -5.5 22.1 84 -7.8 17.9
22:10 1016 30 846 24.98 -5.7 21.8 83 -8 17.5
22:15 1016 30 846 24.98 -6 21.2 84 -8.2 17.2
22:20 1016 30 846 24.98 -6.4 20.4 86 -8.4 16.9
22:25 1017 30.03 846 24.98 -6.5 20.2 87 -8.4 16.9
22:30 1016 30 846 24.98 -6.6 20.2 86 -8.6 16.5
22:35 1017 30.03 846 24.98 -6.7 20 84 -8.9 16
22:40 1017 30.03 846 24.98 -6.6 20.1 85 -8.8 16.2
22:45 1017 30.03 846 24.98 -6.4 20.4 85 -8.5 16.7
22:50 1017 30.03 846 24.98 -6.1 21 87 -8 17.6
22:55 1017 30.03 846 24.98 -5.9 21.3 80 -8.8 16.2
23:00 1017 30.03 846 24.98 -6.6 20.2 82 -9.1 15.7
23:05 1017 30.03 846 24.98 -6.9 19.5 85 -9.1 15.6
23:10 1017 30.03 846 24.98 -6.8 19.8 83 -9.2 15.4
23:15 1017 30.03 846 24.98 -6.8 19.8 82 -9.3 15.2
23:20 1017 30.03 846 24.98 -6.8 19.8 87 -8.6 16.5
23:25 1017 30.03 846 24.98 -6.4 20.5 88 -8.2 17.3
23:30 1017 30.03 846 24.98 -6.5 20.4 87 -8.2 17.2
23:35 1017 30.03 846 24.98 -6.7 19.9 87 -8.6 16.6
23:40 1017 30.03 846 24.98 -6.8 19.7 87 -8.6 16.5
23:45 1017 30.03 846 24.98 -6.9 19.6 89 -8.5 16.8
23:50 1017 30.03 846 24.98 -6.8 19.8 89 -8.3 17
23:55 1017 30.03 846 24.98 -6.9 19.6 90 -8.2 17.2
24:00 1017 30.03 846 24.98 -6.8 19.8 89 -8.2 17.2
00:05 1017 30.03 846 24.98 -7 19.4 87 -8.8 16.1
00:10 1017 30.03 846 24.98 -7.4 18.6 84 -9.7 14.6
00:15 1017 30.03 846 24.98 -7.7 18.2 85 -9.8 14.3
00:20 1017 30.03 846 24.98 -7.6 18.4 87 -9.4 15.2
00:25 1017 30.03 846 24.98 -7.7 18.2 85 -9.8 14.3
00:30 1017 30.03 846 24.98 -7.7 18.1 84 -9.9 14.1
00:35 1017 30.03 846 24.98 -7.8 18 85 -9.9 14.2
00:40 1017 30.03 846 24.98 -7.7 18.2 85 -9.8 14.3
00:45 1017 30.03 846 24.98 -7.4 18.7 90 -8.8 16.1
00:50 1017 30.03 846 24.98 -7.1 19.1 90 -8.6 16.6
00:55 1017 30.03 846 24.98 -7.2 19.1 90 -8.6 16.6
01:00 1017 30.03 846 24.98 -7 19.5 91 -8.2 17.3
01:05 1017 30.03 846 24.98 -6.9 19.6 87 -8.7 16.3
01:10 1017 30.03 846 24.98 -7.1 19.3 88 -8.8 16.2
01:15 1017 30.03 846 24.98 -7 19.5 87 -8.7 16.3
01:20 1017 30.03 846 24.98 -6.8 19.7 88 -8.6 16.6
01:25 1017 30.03 846 24.98 -6.8 19.8 87 -8.7 16.4
01:30 1017 30.03 846 24.98 -6.9 19.7 88 -8.5 16.7
01:35 1017 30.03 846 24.98 -6.8 19.8 88 -8.5 16.7
01:40 1017 30.03 846 24.98 -6.8 19.8 89 -8.3 17.1
01:45 1017 30.03 846 24.98 -6.5 20.3 87 -8.3 17
01:50 1017 30.03 846 24.98 -6.5 20.4 87 -8.2 17.2
01:55 1017 30.03 846 24.98 -6.4 20.5 86 -8.4 16.9
02:00 1017 30.03 846 24.98 -6.6 20.1 87 -8.5 16.7
02:05 1017 30.03 846 24.98 -6.6 20.2 88 -8.3 17
02:10 1017 30.03 846 24.98 -6.3 20.7 88 -7.9 17.8
02:15 1017 30.03 846 24.98 -5.8 21.5 88 -7.6 18.3
02:20 1017 30.03 847 25.01 -5.7 21.7 87 -7.5 18.5
02:25 1017 30.03 847 25.01 -5.7 21.7 87 -7.5 18.5
02:30 1017 30.03 847 25.01 -5.9 21.5 88 -7.6 18.3
02:35 1017 30.03 847 25.01 -6 21.2 86 -8 17.5
02:40 1017 30.03 847 25.01 -6.4 20.4 86 -8.4 16.9
02:45 1018 30.06 847 25.01 -6.6 20.1 86 -8.5 16.6
02:50 1018 30.06 847 25.01 -6.6 20 86 -8.6 16.5
02:55 1018 30.06 847 25.01 -6.6 20.2 86 -8.6 16.5
03:00 1018 30.06 847 25.01 -6.5 20.4 87 -8.3 17
03:05 1018 30.06 847 25.01 -6.3 20.7 88 -7.9 17.8
03:10 1018 30.06 847 25.01 -6.1 21 88 -7.8 18
03:15 1018 30.06 847 25.01 -6 21.1 88 -7.7 18.1
03:20 1018 30.06 847 25.01 -6 21.2 88 -7.6 18.3
03:25 1018 30.06 847 25.01 -5.9 21.3 88 -7.6 18.3
03:30 1018 30.06 847 25.01 -5.9 21.4 87 -7.7 18.1
03:35 1018 30.06 847 25.01 -5.9 21.5 87 -7.8 18
03:40 1018 30.06 847 25.01 -5.8 21.5 86 -7.8 18
03:45 1018 30.06 847 25.01 -5.8 21.5 86 -7.8 17.9
03:50 1018 30.06 847 25.01 -5.8 21.5 86 -7.8 17.9
03:55 1018 30.06 847 25.01 -5.8 21.5 86 -7.8 17.9
04:00 1018 30.06 847 25.01 -5.8 21.5 86 -7.8 18
04:05 1018 30.06 847 25.01 -5.8 21.6 85 -7.8 17.9
04:10 1018 30.06 847 25.01 -5.8 21.6 85 -7.8 17.9
04:15 1018 30.06 847 25.01 -5.8 21.6 85 -7.9 17.8
04:20 1018 30.06 847 25.01 -5.7 21.7 85 -7.9 17.8
04:25 1018 30.06 847 25.01 -5.7 21.7 85 -7.8 17.9
04:30 1018 30.06 847 25.01 -5.8 21.6 85 -7.9 17.8
04:35 1018 30.06 847 25.01 -5.8 21.6 86 -7.8 18
04:40 1018 30.06 847 25.01 -5.7 21.7 85 -7.8 18
04:45 1018 30.06 847 25.01 -5.6 21.8 84 -7.9 17.8
04:50 1018 30.06 847 25.01 -5.9 21.3 83 -8.4 16.9
04:55 1018 30.06 847 25.01 -6.4 20.6 83 -8.7 16.3
05:00 1018 30.06 847 25.01 -6.3 20.6 83 -8.7 16.3
05:05 1018 30.06 847 25.01 -6.1 21.1 81 -8.7 16.3
05:10 1018 30.06 847 25.01 -6.1 21 83 -8.6 16.6
05:15 1018 30.06 847 25.01 -6 21.1 82 -8.6 16.5
05:20 1018 30.06 847 25.01 -5.9 21.3 82 -8.5 16.7
05:25 1018 30.06 847 25.01 -6 21.1 83 -8.5 16.8
05:30 1018 30.06 847 25.01 -6.2 20.9 83 -8.6 16.6
05:35 1018 30.06 847 25.01 -6.1 21.1 83 -8.4 16.8
05:40 1018 30.06 847 25.01 -6 21.2 84 -8.3 17
05:45 1018 30.06 847 25.01 -6 21.2 84 -8.2 17.2
05:50 1018 30.06 847 25.01 -5.9 21.3 84 -8.2 17.3
05:55 1018 30.06 847 25.01 -6 21.3 85 -8.2 17.3
06:00 1018 30.06 847 25.01 -5.9 21.4 84 -8.1 17.4
06:05 1018 30.06 847 25.01 -5.9 21.4 85 -8.1 17.5
06:10 1018 30.06 847 25.01 -5.9 21.4 85 -8.1 17.5
06:15 1018 30.06 847 25.01 -5.9 21.4 84 -8.1 17.4
06:20 1018 30.06 847 25.01 -6 21.3 85 -8.1 17.3
06:25 1018 30.06 847 25.01 -6 21.1 86 -8.1 17.5
06:30 1018 30.06 847 25.01 -6 21.2 86 -8 17.5
06:35 1018 30.06 847 25.01 -6.1 21.1 86 -8.1 17.5
06:40 1018 30.06 847 25.01 -6.1 21 87 -7.9 17.7
06:45 1018 30.06 847 25.01 -6.1 21.1 86 -8 17.6
06:50 1018 30.06 847 25.01 -6.1 20.9 87 -8 17.7
06:55 1018 30.06 847 25.01 -6.2 20.8 88 -8 17.7
07:00 1018 30.06 847 25.01 -6.3 20.7 88 -7.9 17.8
07:05 1018 30.06 847 25.01 -6.3 20.7 88 -7.9 17.8
07:10 1018 30.06 847 25.01 -6.3 20.7 88 -7.9 17.8
07:15 1018 30.06 847 25.01 -6.2 20.8 88 -7.8 17.9
07:20 1018 30.06 847 25.01 -6.3 20.7 88 -7.9 17.8
07:25 1018 30.06 847 25.01 -6.3 20.6 89 -7.9 17.7
07:30 1018 30.06 847 25.01 -6.4 20.6 88 -8 17.6
07:35 1018 30.06 847 25.01 -6.4 20.5 88 -8 17.5
07:40 1018 30.06 847 25.01 -6.4 20.5 88 -8.1 17.4
07:45 1018 30.06 847 25.01 -6.4 20.4 88 -8.2 17.3
07:50 1018 30.06 847 25.01 -6.5 20.4 88 -8.1 17.4
07:55 1018 30.06 847 25.01 -6.4 20.5 88 -8.1 17.5
08:00 1018 30.06 847 25.01 -6.5 20.4 88 -8.2 17.3
08:05 1018 30.06 847 25.01 -6.5 20.3 88 -8.1 17.3
08:10 1018 30.06 847 25.01 -6.6 20.2 88 -8.2 17.3
08:15 1018 30.06 847 25.01 -6.6 20.2 88 -8.3 17.1
08:20 1018 30.06 847 25.01 -6.6 20.1 87 -8.4 16.9
08:25 1018 30.06 847 25.01 -6.7 19.9 87 -8.5 16.7
08:30 1018 30.06 847 25.01 -6.8 19.8 87 -8.5 16.6
08:35 1018 30.06 847 25.01 -6.8 19.7 87 -8.6 16.6
08:40 1018 30.06 847 25.01 -6.9 19.6 87 -8.7 16.4
08:45 1018 30.06 847 25.01 -6.8 19.7 86 -8.7 16.3
08:50 1018 30.06 847 25.01 -6.8 19.7 86 -8.8 16.2
08:55 1018 30.06 847 25.01 -6.7 19.9 86 -8.7 16.4
09:00 1018 30.06 847 25.01 -6.7 19.9 85 -8.8 16.1
09:05 1018 30.06 847 25.01 -6.8 19.8 86 -8.8 16.2
09:10 1018 30.06 847 25.01 -6.8 19.8 85 -8.9 16
09:15 1018 30.06 847 25.01 -6.7 19.9 85 -8.9 16
09:20 1018 30.06 847 25.01 -6.7 20 84 -8.9 16
09:25 1018 30.06 847 25.01 -6.6 20.1 84 -8.9 15.9
09:30 1018 30.06 847 25.01 -6.7 20 83 -9.1 15.6
09:35 1018 30.06 847 25.01 -6.8 19.8 84 -9 15.8
09:40 1018 30.06 847 25.01 -6.6 20.1 84 -9 15.9
09:45 1018 30.06 847 25.01 -6.6 20.1 83 -9 15.7
09:50 1018 30.06 848 25.04 -6.6 20.2 83 -9 15.8
09:55 1018 30.06 848 25.04 -6.6 20.2 82 -9.2 15.5
10:00 1018 30.06 848 25.04 -6.6 20.1 82 -9.2 15.4
10:05 1018 30.06 848 25.04 -6.6 20.1 82 -9.2 15.4
10:10 1018 30.06 847 25.01 -6.5 20.3 81 -9.2 15.5
10:15 1018 30.06 847 25.01 -6.3 20.6 81 -9.1 15.7
10:20 1018 30.06 847 25.01 -6.3 20.7 81 -9.1 15.6
10:25 1018 30.06 847 25.01 -6.2 20.8 80 -9.2 15.5
10:30 1018 30.06 847 25.01 -6.2 20.9 79 -9.2 15.4
10:35 1018 30.06 847 25.01 -5.9 21.5 78 -9 15.8
10:40 1018 30.06 847 25.01 -6.2 20.8 80 -9.2 15.5
10:45 1018 30.06 847 25.01 -6.2 20.9 79 -9.2 15.4
10:50 1018 30.06 847 25.01 -6.2 20.9 79 -9.2 15.5
10:55 1018 30.06 847 25.01 -6 21.1 79 -9.2 15.4
11:00 1018 30.06 847 25.01 -6.1 21 80 -9 15.9
11:05 1018 30.06 847 25.01 -5.9 21.3 78 -9.1 15.6
11:10 1018 30.06 847 25.01 -6 21.2 80 -9 15.9
11:15 1018 30.06 847 25.01 -5.6 22 76 -9.1 15.6
11:20 1018 30.06 847 25.01 -5.5 22 77 -8.9 16
11:25 1018 30.06 847 25.01 -5.7 21.7 77 -9.1 15.7
11:30 1018 30.06 847 25.01 -5.7 21.8 77 -9.1 15.5
11:35 1018 30.06 847 25.01 -5.7 21.8 77 -9.1 15.7
11:40 1018 30.06 847 25.01 -5.5 22.1 77 -8.9 16
11:45 1018 30.06 847 25.01 -5.4 22.4 76 -8.9 15.9
11:50 1018 30.06 847 25.01 -5.3 22.4 76 -9 15.9
11:55 1018 30.06 847 25.01 -5.3 22.5 75 -9 15.8
12:00 1018 30.06 847 25.01 -5.1 22.8 75 -8.9 16
12:05 1018 30.06 847 25.01 -5.1 22.8 76 -8.8 16.2
12:10 1018 30.06 847 25.01 -5.2 22.6 76 -8.9 16.1
12:15 1018 30.06 847 25.01 -5.1 22.9 74 -8.9 15.9
12:20 1018 30.06 847 25.01 -5.1 22.8 75 -8.8 16.1
12:25 1018 30.06 847 25.01 -5.2 22.7 75 -8.9 15.9
12:30 1018 30.06 847 25.01 -5.1 22.7 75 -8.9 15.9
12:35 1018 30.06 847 25.01 -5.2 22.6 77 -8.7 16.4
12:40 1018 30.06 847 25.01 -5 23 76 -8.6 16.5
12:45 1018 30.06 847 25.01 -4.8 23.4 75 -8.5 16.7
12:50 1018 30.06 847 25.01 -4.7 23.5 75 -8.4 16.9
12:55 1018 30.06 847 25.01 -4.6 23.6 75 -8.5 16.7
13:00 1017 30.03 847 25.01 -4.8 23.4 76 -8.4 16.9
13:05 1017 30.03 847 25.01 -4.7 23.6 75 -8.4 16.8
13:10 1017 30.03 847 25.01 -4.7 23.5 75 -8.5 16.7
13:15 1017 30.03 847 25.01 -5 23 77 -8.4 16.9
13:20 1017 30.03 847 25.01 -4.8 23.3 76 -8.5 16.7
13:25 1017 30.03 847 25.01 -4.7 23.6 76 -8.3 17.1
13:30 1017 30.03 846 24.98 -4.3 24.3 73 -8.4 16.9
13:35 1017 30.03 846 24.98 -4.2 24.5 73 -8.3 17.1
13:40 1017 30.03 846 24.98 -3.8 25.2 70 -8.5 16.8
13:45 1017 30.03 846 24.98 -3.9 25 72 -8.2 17.2
13:50 1017 30.03 846 24.98 -3.8 25.1 72 -8.1 17.4
13:55 1017 30.03 846 24.98 -4.3 24.3 73 -8.4 16.9
14:00 1017 30.03 846 24.98 -4.4 24.1 75 -8.2 17.3
14:05 1017 30.03 846 24.98 -4.2 24.5 73 -8.3 17
14:10 1017 30.03 846 24.98 -3.7 25.3 71 -8.2 17.2
14:15 1017 30.03 846 24.98 -3.8 25.2 71 -8.3 17
14:20 1017 30.03 846 24.98 -3.7 25.4 70 -8.4 17
14:25 1017 30.03 846 24.98 -3.6 25.5 70 -8.3 17
14:30 1017 30.03 846 24.98 -3.8 25.2 72 -8.2 17.3
14:35 1017 30.03 846 24.98 -4.1 24.7 72 -8.5 16.7
14:40 1017 30.03 846 24.98 -4.3 24.3 72 -8.5 16.7
14:45 1017 30.03 846 24.98 -4.2 24.5 72 -8.5 16.7
14:50 1017 30.03 846 24.98 -3.7 25.3 70 -8.5 16.7
14:55 1017 30.03 846 24.98 -3.9 25 70 -8.6 16.6
15:00 1017 30.03 846 24.98 -4.1 24.6 70 -8.8 16.2
15:05 1017 30.03 846 24.98 -3.6 25.5 68 -8.6 16.5
15:10 1017 30.03 846 24.98 -3.9 25 70 -8.7 16.4
15:15 1017 30.03 846 24.98 -4.4 24.1 71 -8.9 16
15:20 1017 30.03 846 24.98 -4.5 23.9 71 -9 15.7
15:25 1017 30.03 846 24.98 -4.2 24.4 70 -8.9 15.9
15:30 1017 30.03 846 24.98 -4.3 24.3 70 -9 15.8
15:35 1017 30.03 846 24.98 -4.2 24.4 70 -8.9 16
15:40 1017 30.03 846 24.98 -3.8 25.1 71 -8.4 16.8
15:45 1017 30.03 846 24.98 -4 24.8 71 -8.5 16.7
15:50 1017 30.03 846 24.98 -4.1 24.6 72 -8.5 16.7
15:55 1017 30.03 846 24.98 -4.2 24.5 72 -8.5 16.6
16:00 1017 30.03 846 24.98 -4.7 23.6 74 -8.6 16.6
16:05 1017 30.03 846 24.98 -5.1 22.8 76 -8.8 16.2
16:10 1017 30.03 846 24.98 -5.2 22.7 75 -9 15.8
16:15 1017 30.03 846 24.98 -5.4 22.3 76 -8.9 16
16:20 1017 30.03 846 24.98 -5.3 22.5 75 -9 15.7
16:25 1017 30.03 846 24.98 -5.3 22.5 76 -8.9 16
16:30 1017 30.03 846 24.98 -5.6 21.9 77 -9 15.7
16:35 1017 30.03 846 24.98 -5.8 21.6 77 -9.2 15.4
16:40 1017 30.03 846 24.98 -5.9 21.4 78 -9.2 15.5
16:45 1017 30.03 846 24.98 -6.2 20.9 79 -9.2 15.4
16:50 1017 30.03 846 24.98 -6.3 20.7 79 -9.3 15.3
16:55 1017 30.03 846 24.98 -6.4 20.5 79 -9.4 15.1
17:00 1017 30.03 846 24.98 -6.6 20.1 81 -9.4 15
17:05 1017 30.03 846 24.98 -6.8 19.7 81 -9.6 14.6
17:10 1017 30.03 846 24.98 -7 19.5 81 -9.7 14.5
17:15 1017 30.03 846 24.98 -7 19.4 82 -9.6 14.7
17:20 1017 30.03 846 24.98 -7.1 19.3 81 -9.7 14.5
17:25 1017 30.03 846 24.98 -7.1 19.1 81 -9.8 14.3
17:30 1017 30.03 846 24.98 -7.2 19 82 -9.9 14.2
17:35 1017 30.03 846 24.98 -7.3 18.8 83 -9.8 14.3
17:40 1017 30.03 846 24.98 -7.4 18.7 83 -9.9 14.2
17:45 1017 30.03 846 24.98 -7.6 18.4 83 -10 14.1
17:50 1017 30.03 846 24.98 -7.7 18.1 83 -10.1 13.8
17:55 1017 30.03 846 24.98 -8 17.7 84 -10.3 13.5
18:00 1017 30.03 846 24.98 -8.2 17.2 84 -10.4 13.3
18:05 1017 30.03 846 24.98 -8.4 16.9 85 -10.5 13.1
18:10 1017 30.03 846 24.98 -8.5 16.7 85 -10.5 13
18:15 1017 30.03 846 24.98 -8.5 16.7 85 -10.5 13
18:20 1017 30.03 846 24.98 -8.6 16.6 86 -10.6 13
18:25 1017 30.03 846 24.98 -8.6 16.6 86 -10.6 12.9
18:30 1017 30.03 846 24.98 -8.7 16.4 86 -10.6 12.9
18:35 1017 30.03 846 24.98 -8.7 16.3 86 -10.7 12.8
18:40 1017 30.03 846 24.98 -8.8 16.1 86 -10.8 12.6
18:45 1017 30.03 846 24.98 -8.9 16.1 86 -10.8 12.5
18:50 1017 30.03 846 24.98 -9 15.9 86 -10.9 12.4
18:55 1017 30.03 846 24.98 -9 15.8 86 -10.9 12.4
19:00 1017 30.03 846 24.98 -9 15.8 86 -10.9 12.4
19:05 1017 30.03 846 24.98 -9 15.9 86 -10.9 12.4
19:10 1017 30.03 846 24.98 -8.9 16 85 -10.9 12.3
19:15 1017 30.03 846 24.98 -8.9 16 85 -10.9 12.3
19:20 1017 30.03 846 24.98 -8.9 16.1 85 -11 12.3
19:25 1017 30.03 846 24.98 -8.9 16.1 85 -11 12.2
19:30 1017 30.03 846 24.98 -8.9 16.1 85 -11 12.2
19:35 1017 30.03 846 24.98 -8.9 15.9 85 -11.1 12.1
19:40 1017 30.03 846 24.98 -9 15.8 85 -11.1 12
19:45 1017 30.03 846 24.98 -9.1 15.7 85 -11.2 11.8
19:50 1017 30.03 846 24.98 -9.1 15.6 85 -11.2 11.8
19:55 1016 30 846 24.98 -9.3 15.3 85 -11.3 11.6
20:00 1016 30 846 24.98 -9.3 15.2 84 -11.5 11.3
20:05 1016 30 846 24.98 -9.4 15.2 85 -11.5 11.4
20:10 1016 30 846 24.98 -9.4 15.2 85 -11.5 11.3
20:15 1016 30 846 24.98 -9.3 15.2 85 -11.5 11.4
20:20 1016 30 846 24.98 -9.3 15.3 84 -11.5 11.3
20:25 1016 30 846 24.98 -9.3 15.3 84 -11.5 11.3
20:30 1016 30 846 24.98 -9.4 15.1 84 -11.5 11.2
20:35 1016 30 846 24.98 -9.4 15.1 85 -11.5 11.2
20:40 1017 30.03 846 24.98 -9.4 15 85 -11.6 11.2
20:45 1016 30 846 24.98 -9.5 15 85 -11.6 11.1
20:50 1016 30 846 24.98 -9.6 14.8 85 -11.6 11.1
20:55 1016 30 846 24.98 -9.6 14.7 85 -11.6 11.1
21:00 1016 30 846 24.98 -9.6 14.8 86 -11.5 11.2
21:05 1016 30 846 24.98 -9.6 14.7 86 -11.5 11.3
21:10 1016 30 846 24.98 -9.6 14.7 86 -11.5 11.3
21:15 1016 30 846 24.98 -9.5 14.8 86 -11.5 11.4
21:20 1016 30 846 24.98 -9.5 14.8 86 -11.5 11.3
21:25 1016 30 846 24.98 -9.6 14.8 86 -11.5 11.3
21:30 1017 30.03 846 24.98 -9.5 15 86 -11.5 11.4
21:35 1017 30.03 846 24.98 -9.5 15 86 -11.4 11.5
21:40 1016 30 846 24.98 -9.4 15.1 85 -11.5 11.3
21:45 1016 30 846 24.98 -9.4 15 86 -11.4 11.4
21:50 1016 30 846 24.98 -9.5 14.9 86 -11.5 11.3
21:55 1016 30 846 24.98 -9.5 14.9 85 -11.5 11.3
22:00 1016 30 846 24.98 -9.6 14.8 85 -11.6 11.2
22:05 1016 30 846 24.98 -9.6 14.8 86 -11.5 11.3
22:10 1016 30 846 24.98 -9.6 14.8 86 -11.5 11.4
22:15 1016 30 846 24.98 -9.6 14.8 86 -11.5 11.3
22:20 1016 30 846 24.98 -9.6 14.8 85 -11.6 11.2
22:25 1016 30 846 24.98 -9.6 14.8 85 -11.6 11.1
22:30 1016 30 846 24.98 -9.6 14.8 85 -11.6 11.1
22:35 1016 30 846 24.98 -9.6 14.8 85 -11.6 11
22:40 1017 30.03 846 24.98 -9.6 14.7 85 -11.7 10.9
22:45 1017 30.03 846 24.98 -9.6 14.7 85 -11.7 10.9
22:50 1016 30 846 24.98 -9.6 14.7 85 -11.7 10.9
22:55 1016 30 846 24.98 -9.6 14.7 85 -11.7 10.9
23:00 1016 30 846 24.98 -9.6 14.7 85 -11.7 10.9
23:05 1016 30 846 24.98 -9.6 14.7 85 -11.8 10.8
23:10 1016 30 846 24.98 -9.7 14.6 85 -11.8 10.8
23:15 1016 30 846 24.98 -9.6 14.7 85 -11.6 11
23:20 1016 30 846 24.98 -9.6 14.8 84 -11.7 10.9
23:25 1016 30 846 24.98 -9.6 14.7 85 -11.7 11
23:30 1016 30 846 24.98 -9.6 14.8 85 -11.7 10.9
23:35 1016 30 846 24.98 -9.6 14.7 85 -11.7 11
23:40 1016 30 846 24.98 -9.5 14.8 85 -11.6 11.1
23:45 1016 30 846 24.98 -9.5 14.8 85 -11.7 11
23:50 1016 30 846 24.98 -9.5 14.9 85 -11.6 11.1
23:55 1016 30 846 24.98 -9.5 14.9 85 -11.6 11.1
24:00 1016 30 846 24.98 -9.5 15 85 -11.6 11.2